Total_Precipitation_Accumulation
0.95 0.78 0.71 0.40 0.49 0.58 0.54 0.40 0.30 0.31 0.31 0.21 0.32 0.45 0.54 0.18 0.10 0.36 0.77 0.75 1.07 1.18 1.19 1.13 0.94 1.07 1.35 1.44 1.56 1.04 0.77 0.87 0.82
0.87 0.77 0.49 0.30 0.36 0.45 0.59 0.54 0.26 0.31 0.37 0.25 0.30 0.38 0.23 0.10 0.23 0.37 0.48 0.98 1.31 1.09 0.89 0.78 0.65 1.03 1.54 1.31 1.34 1.47 1.15 1.04 0.84
1.17 0.85 0.65 0.41 0.32 0.36 0.61 0.82 0.69 0.48 0.29 0.34 0.39 0.35 0.18 0.18 0.31 0.27 0.55 0.86 0.90 0.88 0.91 0.86 0.72 0.82 1.38 1.36 1.23 1.18 1.28 1.18 1.08
1.04 0.87 0.71 0.59 0.51 0.54 0.61 0.76 0.77 0.64 0.44 0.45 0.39 0.32 0.20 0.17 0.28 0.31 0.49 0.76 0.79 0.94 0.85 0.74 0.88 0.93 1.17 1.35 1.19 1.10 1.05 1.03 1.00
0.95 0.60 0.58 0.79 0.78 0.70 0.63 0.58 0.60 0.59 0.52 0.48 0.35 0.31 0.36 0.21 0.27 0.30 0.36 0.64 0.91 0.87 0.88 0.79 0.91 1.02 1.04 1.12 1.12 1.18 1.19 1.06 1.05
0.50 0.53 0.47 0.60 0.94 0.88 0.83 0.67 0.63 0.51 0.43 0.47 0.41 0.31 0.12 0.11 0.19 0.29 0.41 0.61 0.99 0.87 0.90 0.78 0.80 0.96 1.07 0.95 0.99 1.16 1.03 0.89 0.85
0.28 0.35 0.66 0.50 0.67 0.92 1.13 0.91 0.78 0.52 0.27 0.17 0.21 0.22 0.17 0.21 0.23 0.22 0.26 0.93 1.56 1.26 0.98 1.10 0.94 0.80 0.92 1.25 1.16 1.11 1.09 1.19 1.26
0.25 0.24 0.34 0.72 0.67 0.67 0.87 0.79 0.51 0.37 0.37 0.31 0.25 0.20 0.26 0.39 0.47 0.38 0.39 1.10 1.47 1.39 1.58 1.52 1.15 1.10 1.28 1.07 1.59 1.72 1.52 1.58 1.92
0.33 0.38 0.49 0.56 0.86 0.74 0.82 0.90 0.88 0.87 0.90 0.92 0.85 0.71 0.50 0.55 0.67 0.69 0.63 0.73 1.45 1.34 1.89 2.66 2.29 1.89 1.65 1.34 1.73 2.12 2.39 2.17 1.65
0.54 0.58 0.77 0.84 0.97 0.65 0.56 0.76 1.05 1.16 1.12 1.19 1.12 1.12 0.98 0.92 0.96 0.83 1.00 0.81 1.09 1.53 1.57 2.23 3.12 3.11 2.68 2.70 2.25 2.23 2.04 1.81 1.95
0.92 0.90 0.84 0.85 0.95 1.13 1.15 1.13 0.90 0.67 0.91 1.03 1.19 1.19 1.38 1.28 1.15 1.05 1.19 1.15 0.82 1.10 1.70 1.87 2.26 3.45 3.43 2.80 2.30 2.00 2.00 2.06 1.98
0.83 0.90 0.91 0.81 0.93 1.10 1.09 1.05 1.27 1.27 1.19 0.93 0.93 1.00 1.21 1.42 1.53 1.60 1.48 1.36 1.25 1.13 1.41 2.12 2.37 2.35 2.79 3.23 3.06 2.62 2.36 2.66 2.57
0.58 0.67 0.74 0.91 1.02 0.89 0.87 0.93 0.87 0.79 0.93 1.02 1.05 1.02 0.94 0.89 1.04 1.41 1.82 1.94 1.60 1.38 1.34 1.80 2.55 2.74 2.54 2.98 3.17 3.15 2.57 2.64 2.73
0.54 0.61 0.64 0.95 1.23 1.38 1.25 1.00 0.94 1.08 1.00 0.82 0.85 0.97 1.02 1.08 1.15 1.04 0.99 1.11 1.24 0.93 0.79 0.94 1.38 2.18 2.80 2.90 3.15 3.32 3.46 2.82 2.83
0.51 0.64 0.79 0.96 1.08 1.13 1.55 1.63 1.49 1.34 1.29 1.43 1.45 1.17 0.82 0.80 0.95 1.08 1.12 1.16 1.52 1.88 1.68 1.39 1.38 1.26 1.70 2.56 3.12 3.66 4.79 5.36 3.60
0.69 0.61 0.76 0.91 0.97 1.18 1.19 1.39 1.50 1.46 1.56 2.07 1.95 1.68 1.68 1.55 1.24 1.19 1.41 1.41 1.32 1.62 2.45 3.01 3.34 3.15 2.87 2.17 2.59 3.63 5.46 6.43 5.97
1.36 0.94 0.80 0.82 0.92 1.03 1.13 1.25 1.34 1.19 1.36 1.49 1.57 1.61 1.40 1.33 1.36 1.64 1.99 2.19 2.64 2.49 2.54 2.54 3.03 3.18 3.45 2.97 2.81 2.86 3.32 4.47 4.83
2.25 2.13 1.86 1.40 1.15 1.27 1.40 1.77 2.32 2.14 1.87 2.09 2.22 1.73 1.26 0.84 0.94 1.17 1.09 1.34 1.49 1.65 1.81 1.72 1.61 1.51 1.46 1.37 1.45 2.16 2.14 2.76 3.39
3.68 3.23 2.90 2.53 2.09 1.94 2.16 2.34 2.50 2.77 2.75 2.82 2.69 2.31 1.85 1.50 1.06 0.82 1.00 0.94 1.01 0.95 1.01 0.93 0.97 1.02 1.09 1.14 1.07 1.33 2.19 2.74 3.31
2.96 3.33 3.43 3.35 3.58 3.53 3.28 3.04 2.99 2.92 2.70 2.49 2.52 2.50 2.26 1.88 1.54 1.08 0.83 0.80 0.69 0.62 0.67 0.72 0.78 0.84 1.04 1.14 1.29 1.29 1.50 2.03 2.30